Simultaneous Nadir Overpasses (SNOs) Predictions

Prediction of SNOs between GOES-15 and NOAA-20 Satellite Orbit:

Table of predicted SNOs for the next 14.0 days since TLE Epoch: 5/8/2020
Index Date Time (GOES-15) GOES-15 Lat,Lon NOAA-20 Lat,Lon Distance(km) Time Diff (sec)
1 05/09/2020 09:53:19 -0.11,-128.30 -0.33,-127.42 100.94 80
2 05/11/2020 21:56:30 0.09,-128.30 0.12,-128.19 13.00 80
3 05/14/2020 10:02:12 -0.08,-128.32 0.07,-128.92 69.25 80
4 05/15/2020 09:40:47 -0.09,-128.32 -0.96,-124.40 446.67 80
5 05/16/2020 22:05:23 0.06,-128.31 -0.27,-129.69 158.45 80
6 05/17/2020 21:43:58 0.08,-128.31 0.77,-125.17 357.84 80
7 05/19/2020 10:08:25 -0.05,-128.32 0.41,-130.44 240.70 80
8 05/20/2020 09:47:01 -0.07,-128.32 -0.63,-125.91 274.79 80
9 05/21/2020 22:11:36 0.04,-128.29 -0.60,-131.21 331.96 80




NCC Satellite Simultaneous Nadir Overpasses (SNOs) Prediction Service
